Litchfield, MN

1:34 AM CST on February 08, 2016 (GMT -0600)
Litchfield Municipal

Weather History for KLJF - February, 2012

Change the Weather History Date:

Thursday, February 23, 2012

  Actual Average Record
Temperature  
Mean Temperature 26 °F -  
Max Temperature 32 °F 31 °F 55 °F (1958)
Min Temperature 19 °F 12 °F -13 °F (1966)
Degree Days  
Heating Degree Days 40    
Moisture  
Dew Point 24 °F    
Average Humidity 90    
Maximum Humidity 100    
Minimum Humidity 75    
Precipitation  
Precipitation 0.03 in - - ()
Sea Level Pressure  
Sea Level Pressure 29.52 in    
Wind  
Wind Speed 4 mph (NNE)    
Max Wind Speed 13 mph    
Max Gust Speed -    
Visibility 9 miles    
Events      
Averages and records for this station are not official NWS values.
T = Trace of Precipitation, MM = Missing Value Source: NWS Daily Summary

Daily Weather History Graph

Daily Weather History Graph

Search for Another Location

Airport or City:

Trip Planner

Search our weather history database for the weather conditions in past years. The results will help you decide how hot, cold, wet, or windy it might be!

Date:

Astronomy

Feb. 23, 2012 Rise Set
Actual Time 7:07 AM CST 5:56 PM CST
Civil Twilight 6:37 AM CST 6:26 PM CST
Nautical Twilight 6:03 AM CST 7:00 PM CST
Astronomical Twilight 5:29 AM CST 7:34 PM CST
Moon 7:26 AM CST (2/23) 8:11 PM CST (2/23)
Length of Visible Light 11h 49m
Length of Day
10h 49m
Waxing Crescent, 3% of the Moon is Illuminated
Feb 23
Waxing Crescent
Feb 29
First Quarter
Mar 8
Full
Mar 14
Last Quarter
Mar 22
New

Hourly Weather History & Observations

Time (CST) Temp. Windchill Dew Point Humidity Pressure Visibility Wind Dir Wind Speed Gust Speed Precip Events Conditions
12:13 AM 26.6 °F - 24.8 °F 93% 29.39 in 10.0 mi Calm Calm - N/A   Clear
12:33 AM 24.8 °F - 23.0 °F 93% 29.40 in 10.0 mi Calm Calm - N/A   Clear
12:53 AM 24.8 °F - 23.0 °F 93% 29.42 in 10.0 mi Calm Calm - N/A   Clear
1:13 AM 21.2 °F - 21.2 °F 100% 29.43 in 10.0 mi Calm Calm - N/A   Scattered Clouds
1:33 AM 19.4 °F 11.5 °F 17.6 °F 93% 29.44 in 7.0 mi NNW 5.8 mph - N/A   Mostly Cloudy
1:54 AM 21.2 °F - 19.4 °F 93% 29.45 in 10.0 mi Calm Calm - N/A   Scattered Clouds
2:13 AM 19.4 °F 14.3 °F 19.4 °F 100% 29.45 in 7.0 mi North 3.5 mph - N/A   Scattered Clouds
2:33 AM 21.2 °F 16.4 °F 19.4 °F 93% 29.46 in 7.0 mi NNE 3.5 mph - N/A   Clear
2:52 AM 21.2 °F - 21.2 °F 100% 29.45 in 7.0 mi Calm Calm - N/A   Scattered Clouds
3:13 AM 19.4 °F 12.8 °F 17.6 °F 93% 29.43 in 7.0 mi NNE 4.6 mph - N/A   Scattered Clouds
3:33 AM 19.4 °F 14.3 °F 19.4 °F 100% 29.44 in 7.0 mi NNE 3.5 mph - N/A   Scattered Clouds
3:54 AM 19.4 °F 12.8 °F 19.4 °F 100% 29.44 in 7.0 mi NE 4.6 mph - N/A   Clear
4:13 AM 21.2 °F 13.6 °F 21.2 °F 100% 29.43 in 7.0 mi ENE 5.8 mph - N/A   Clear
4:33 AM 21.2 °F 16.4 °F 19.4 °F 93% 29.44 in 7.0 mi ENE 3.5 mph - N/A   Clear
4:53 AM 19.4 °F 14.3 °F 19.4 °F 100% 29.45 in 7.0 mi East 3.5 mph - N/A   Clear
5:13 AM 19.4 °F 11.5 °F 19.4 °F 100% 29.45 in 7.0 mi East 5.8 mph - N/A   Clear
5:33 AM 23.0 °F 15.8 °F 21.2 °F 93% 29.45 in 10.0 mi East 5.8 mph - N/A   Clear
5:53 AM 23.0 °F 17.0 °F 21.2 °F 93% 29.45 in 10.0 mi ENE 4.6 mph - N/A   Clear
6:13 AM 23.0 °F 15.8 °F 21.2 °F 93% 29.45 in 10.0 mi ENE 5.8 mph - N/A   Clear
6:33 AM 23.0 °F 14.7 °F 21.2 °F 93% 29.45 in 10.0 mi NE 6.9 mph - N/A   Clear
6:53 AM 23.0 °F 17.0 °F 21.2 °F 93% 29.45 in 10.0 mi ENE 4.6 mph - N/A   Clear
7:13 AM 23.0 °F 14.7 °F 21.2 °F 93% 29.46 in 7.0 mi ENE 6.9 mph - N/A   Clear
7:33 AM 23.0 °F 14.7 °F 21.2 °F 93% 29.46 in 7.0 mi ENE 6.9 mph - N/A   Clear
7:53 AM 23.0 °F 15.8 °F 21.2 °F 93% 29.47 in 7.0 mi ENE 5.8 mph - N/A   Clear
8:13 AM 24.8 °F 20.5 °F 23.0 °F 93% 29.48 in 7.0 mi ENE 3.5 mph - N/A   Clear
8:33 AM 24.8 °F 20.5 °F 23.0 °F 93% 29.50 in 7.0 mi ESE 3.5 mph - N/A   Clear
8:53 AM 24.8 °F - 23.0 °F 93% 29.51 in 7.0 mi Calm Calm - N/A   Clear
9:13 AM 26.6 °F - 24.8 °F 93% 29.51 in 7.0 mi Calm Calm - N/A   Clear
9:33 AM 26.6 °F - 24.8 °F 93% 29.51 in 7.0 mi Calm Calm - N/A   Clear
9:53 AM 26.6 °F 21.2 °F 24.8 °F 93% 29.51 in 7.0 mi NE 4.6 mph - N/A   Scattered Clouds
10:13 AM 28.4 °F 21.2 °F 24.8 °F 86% 29.53 in 7.0 mi NNE 6.9 mph - N/A   Overcast
10:33 AM 28.4 °F 20.4 °F 26.6 °F 93% 29.53 in 7.0 mi NNE 8.1 mph - N/A   Overcast
10:44 AM 28.4 °F 20.4 °F 26.6 °F 93% 29.54 in - North 8.1 mph - 0.03 in   Unknown
10:53 AM 28.4 °F 19.7 °F 26.6 °F 93% 29.55 in 7.0 mi North 9.2 mph - N/A   Unknown
11:13 AM 30.2 °F 21.9 °F 26.6 °F 86% 29.55 in 10.0 mi North 9.2 mph - N/A   Overcast
11:33 AM 30.2 °F 22.6 °F 26.6 °F 86% 29.56 in 10.0 mi North 8.1 mph - N/A   Overcast
11:53 AM 30.2 °F 21.9 °F 26.6 °F 86% 29.56 in 10.0 mi NNE 9.2 mph - N/A   Mostly Cloudy
12:13 PM 32.0 °F 24.2 °F 26.6 °F 80% 29.57 in 10.0 mi North 9.2 mph - N/A   Scattered Clouds
12:33 PM 32.0 °F 24.2 °F 26.6 °F 80% 29.57 in 10.0 mi NNE 9.2 mph - N/A   Clear
12:53 PM 32.0 °F 24.2 °F 26.6 °F 80% 29.57 in 10.0 mi NNE 9.2 mph - N/A   Clear
1:13 PM 32.0 °F 23.6 °F 26.6 °F 80% 29.58 in 10.0 mi NNE 10.4 mph - N/A   Clear
1:33 PM 32.0 °F 22.5 °F 26.6 °F 80% 29.58 in 10.0 mi NNE 12.7 mph - N/A   Clear
1:53 PM 32.0 °F 24.2 °F 26.6 °F 80% 29.58 in 10.0 mi NNE 9.2 mph - N/A   Clear
2:13 PM 32.0 °F 24.8 °F 26.6 °F 80% 29.58 in 10.0 mi NNE 8.1 mph - N/A   Clear
2:33 PM 32.0 °F 25.6 °F 26.6 °F 80% 29.59 in 10.0 mi NNE 6.9 mph - N/A   Clear
2:53 PM 30.2 °F 23.4 °F 26.6 °F 86% 29.59 in 10.0 mi NNE 6.9 mph - N/A   Clear
3:13 PM 32.0 °F 25.6 °F 24.8 °F 75% 29.60 in 10.0 mi North 6.9 mph - N/A   Clear
3:33 PM 30.2 °F 25.4 °F 26.6 °F 86% 29.60 in 10.0 mi North 4.6 mph - N/A   Clear
3:53 PM 30.2 °F 22.6 °F 24.8 °F 80% 29.61 in 10.0 mi North 8.1 mph - N/A   Clear
4:13 PM 30.2 °F 26.7 °F 24.8 °F 80% 29.62 in 10.0 mi North 3.5 mph - N/A   Scattered Clouds
4:33 PM 30.2 °F 25.4 °F 26.6 °F 86% 29.63 in 10.0 mi North 4.6 mph - N/A   Scattered Clouds
4:53 PM 30.2 °F 24.3 °F 26.6 °F 86% 29.64 in 10.0 mi NNW 5.8 mph - N/A   Scattered Clouds
5:13 PM 30.2 °F 24.3 °F 24.8 °F 80% 29.65 in 10.0 mi NNW 5.8 mph - N/A   Scattered Clouds
5:33 PM 30.2 °F 24.3 °F 26.6 °F 86% 29.65 in 10.0 mi NNW 5.8 mph - N/A   Clear
5:53 PM 30.2 °F 26.7 °F 24.8 °F 80% 29.65 in 10.0 mi NW 3.5 mph - N/A   Clear
6:13 PM 30.2 °F 25.4 °F 24.8 °F 80% 29.66 in 10.0 mi NW 4.6 mph - N/A   Scattered Clouds
6:33 PM 28.4 °F 22.2 °F 24.8 °F 86% 29.66 in 10.0 mi NNW 5.8 mph - N/A   Clear
6:53 PM 28.4 °F 22.2 °F 24.8 °F 86% 29.67 in 10.0 mi NNW 5.8 mph - N/A   Clear
7:13 PM 28.4 °F 22.2 °F 24.8 °F 86% 29.67 in 10.0 mi NW 5.8 mph - N/A   Clear
7:33 PM 28.4 °F 24.6 °F 24.8 °F 86% 29.68 in 10.0 mi WNW 3.5 mph - N/A   Clear
7:53 PM 28.4 °F - 24.8 °F 86% 29.68 in 10.0 mi Calm Calm - N/A   Clear
8:13 PM 26.6 °F - 24.8 °F 93% 29.68 in 10.0 mi Calm Calm - N/A   Scattered Clouds
8:33 PM 26.6 °F 22.6 °F 24.8 °F 93% 29.69 in 10.0 mi West 3.5 mph - N/A   Scattered Clouds
8:53 PM 28.4 °F 23.3 °F 24.8 °F 86% 29.69 in 10.0 mi West 4.6 mph - N/A   Mostly Cloudy
9:13 PM 28.4 °F - 24.8 °F 86% 29.69 in 10.0 mi Calm Calm - N/A   Overcast
9:33 PM 28.4 °F 22.2 °F 24.8 °F 86% 29.70 in 10.0 mi WNW 5.8 mph - N/A   Overcast
9:53 PM 28.4 °F 22.2 °F 26.6 °F 93% 29.71 in 10.0 mi WNW 5.8 mph - N/A   Overcast
10:13 PM 28.4 °F 21.2 °F 26.6 °F 93% 29.71 in 7.0 mi WNW 6.9 mph - N/A   Overcast
10:33 PM 28.4 °F 21.2 °F 26.6 °F 93% 29.71 in 4.0 mi WNW 6.9 mph - N/A   Overcast
10:53 PM 28.4 °F 23.3 °F 26.6 °F 93% 29.71 in 4.0 mi WNW 4.6 mph - N/A   Overcast
11:13 PM 28.4 °F 22.2 °F 28.4 °F 100% 29.71 in 3.0 mi WNW 5.8 mph - N/A Snow Light Snow
11:33 PM 28.4 °F 23.3 °F 28.4 °F 100% 29.71 in 3.0 mi West 4.6 mph - N/A Snow Light Snow
11:53 PM 28.4 °F 22.2 °F 28.4 °F 100% 29.71 in 3.0 mi WNW 5.8 mph - N/A   Overcast